DW4509 Weather Reports


time (UTC)temp
F
wind
direction
speed
knots
gust
knots
rain 1hr
in
rain 24hr
in
rain mn
in
humidity
%
barometer
mb
20260506050444 40 89 0.0 3.5 0.00 0.00 0.00 82 1015.9
20260506043317 40 352 0.0 6.1 0.00 0.00 0.00 81 1016.0
20260506042340 40 110 0.0 4.3 0.00 0.00 0.00 81 1015.9
20260506041354 40 100 0.0 2.6 0.00 0.00 0.00 81 1015.9
20260506040343 40 267 0.0 0.0 0.00 0.00 0.00 81 1015.9
20260506035335 41 56 0.0 1.7 0.00 0.00 0.00 80 1015.9
20260506034332 41 356 0.0 2.6 0.00 0.00 0.00 80 1015.9
20260506033341 41 345 0.0 0.0 0.00 0.00 0.00 80 1016.0
20260506032355 41 288 0.0 1.7 0.00 0.00 0.00 80 1016.0
20260506031417 41 9 0.0 0.0 0.00 0.00 0.00 81 1016.0
20260506030437 41 234 0.0 0.0 0.00 0.00 0.00 81 1015.9
20260506024300 42 14 0.0 0.0 0.00 0.00 0.00 80 1015.9
20260506023307 42 101 0.0 2.6 0.00 0.00 0.00 80 1015.9
20260506022320 43 1 0.0 0.0 0.00 0.00 0.00 80 1015.9
20260506021341 43 110 0.0 0.0 0.00 0.00 0.00 79 1016.0
20260506020335 44 35 0.0 3.5 0.00 0.00 0.00 79 1016.1
20260506015340 44 2 0.0 3.5 0.00 0.00 0.00 78 1016.2
20260506014335 44 243 0.0 2.6 0.00 0.00 0.00 78 1016.1
20260506013322 45 12 0.0 3.5 0.00 0.00 0.00 78 1016.2
20260506012328 45 75 0.0 4.3 0.00 0.00 0.00 78 1016.2
20260506010207 45 25 0.0 5.2 0.00 0.00 0.00 77 1016.3
20260506005159 45 271 0.0 4.3 0.00 0.00 0.00 77 1016.3
20260506004141 45 64 0.0 1.7 0.00 0.00 0.00 77 1016.4
20260506001948 45 319 0.0 4.3 0.00 0.00 0.00 77 1016.6
20260506000950 45 44 0.0 4.3 0.00 0.00 0.00 76 1016.5
20260505235933 46 29 0.0 6.1 0.00 0.00 0.00 76 1016.5
20260505234930 46 338 0.9 4.3 0.00 0.00 0.00 76 1016.6
20260505232752 46 285 0.9 6.1 0.00 0.00 0.00 75 1016.6
20260505231725 46 338 0.9 6.1 0.00 0.00 0.00 75 1016.7
20260505225620 46 31 0.9 5.2 0.00 0.00 0.00 74 1016.7
20260505223500 47 342 0.9 6.1 0.00 0.00 0.00 73 1016.8
20260505222524 47 101 0.9 6.1 0.00 0.00 0.00 72 1016.8
20260505221511 47 2 0.9 7.8 0.00 0.00 0.00 72 1016.8
20260505220450 47 13 0.9 7.8 0.00 0.00 0.00 71 1016.8
20260505215503 47 55 0.0 5.2 0.00 0.00 0.00 71 1016.9
20260505214507 47 4 0.9 5.2 0.00 0.00 0.00 71 1016.8
20260505212420 48 115 0.9 3.5 0.00 0.00 0.00 71 1016.7
20260505211345 48 70 0.0 5.2 0.00 0.00 0.00 71 1016.7
20260505210324 48 335 0.9 5.2 0.00 0.00 0.00 71 1016.6
20260505205339 48 338 0.9 6.1 0.00 0.00 0.00 70 1016.6
20260505204330 48 3 0.9 6.1 0.00 0.00 0.00 69 1016.5
20260505203325 49 274 0.9 7.0 0.00 0.00 0.00 70 1016.5
20260505202255 49 337 1.7 7.8 0.00 0.00 0.00 70 1016.4
20260505201222 49 99 1.7 8.7 0.00 0.00 0.00 71 1016.2
20260505200219 49 78 1.7 8.7 0.00 0.00 0.00 71 1016.2
20260505192908 50 98 1.7 7.8 0.00 0.00 0.00 72 1015.9
20260505191917 50 319 2.6 7.8 0.00 0.00 0.00 72 1015.8
20260505185747 51 30 0.9 8.7 0.00 0.00 0.00 70 1015.6
20260505183641 52 89 0.9 4.3 0.00 0.00 0.00 73 1015.4
20260505182655 52 91 0.9 4.3 0.00 0.00 0.00 73 1015.3
20260505181646 52 255 1.7 7.8 0.00 0.00 0.00 73 1015.3
20260505180706 52 352 1.7 7.8 0.00 0.00 0.00 72 1015.3
20260505175720 52 84 0.9 5.2 0.00 0.00 0.00 73 1015.3
20260505174745 52 26 1.7 6.1 0.00 0.00 0.00 73 1015.2
20260505173737 53 58 1.7 6.1 0.00 0.00 0.00 73 1015.2
20260505172707 53 89 1.7 6.1 0.00 0.00 0.00 73 1015.1
20260505164233 54 319 1.7 7.0 0.00 0.00 0.00 70 1015.0
20260505163216 54 241 1.7 5.2 0.00 0.00 0.00 70 1015.0
20260505162142 54 54 2.6 7.0 0.00 0.00 0.00 69 1014.9
20260505161142 56 50 2.6 7.8 0.00 0.00 0.00 67 1014.8
20260505160123 58 2 0.9 7.8 0.00 0.00 0.00 61 1014.8
20260505152949 58 22 0.9 4.3 0.00 0.00 0.00 59 1014.7
20260505151931 58 76 0.9 3.5 0.00 0.00 0.00 59 1014.7
20260505150922 58 74 0.0 4.3 0.00 0.00 0.00 57 1014.7
20260505140547 58 25 0.0 2.6 0.00 0.00 0.00 59 1014.7
20260505124503 58 19 0.9 7.0 0.00 0.00 0.00 60 1014.7
20260505123442 58 264 0.0 0.9 0.00 0.00 0.00 59 1014.6
20260505122429 58 70 0.0 5.2 0.00 0.00 0.00 57 1014.5
20260505121448 59 11 0.9 5.2 0.00 0.00 0.00 57 1014.6
20260505120420 59 340 0.0 3.5 0.00 0.00 0.00 58 1014.6
20260505115425 59 237 0.0 3.5 0.00 0.00 0.00 56 1014.5
20260505114405 59 315 0.0 3.5 0.00 0.00 0.00 56 1014.6
20260505113345 59 19 0.0 2.6 0.00 0.00 0.00 56 1014.6
20260505112350 59 226 0.0 3.5 0.00 0.00 0.00 56 1014.7
20260505111330 60 274 0.0 3.5 0.00 0.00 0.00 56 1014.7
20260505110333 58 2 0.0 2.6 0.00 0.00 0.00 59 1014.7
20260505100202 57 90 0.9 5.2 0.00 0.00 0.00 57 1014.9
20260505095135 57 18 0.9 6.1 0.00 0.00 0.00 57 1014.9
20260505094157 56 62 1.7 6.1 0.00 0.00 0.00 58 1015.0
20260505093140 56 66 0.0 4.3 0.00 0.00 0.00 58 1015.1
20260505092134 56 229 0.0 5.2 0.00 0.00 0.00 60 1015.1
20260505091102 57 17 0.9 5.2 0.00 0.00 0.00 60 1015.0
20260505090119 56 91 0.0 3.5 0.00 0.00 0.00 61 1015.1
20260505085126 56 265 0.0 3.5 0.00 0.00 0.00 62 1015.1
20260505084127 56 25 0.9 7.0 0.00 0.00 0.00 63 1015.2
20260505083116 56 240 0.0 6.1 0.00 0.00 0.00 63 1015.2
20260505082136 55 243 0.9 6.1 0.00 0.00 0.00 65 1015.2
20260505081105 55 77 0.0 4.3 0.00 0.00 0.00 67 1015.3
20260505080054 55 24 0.0 4.3 0.00 0.00 0.00 67 1015.2
20260505075110 54 53 0.0 3.5 0.00 0.00 0.00 67 1015.2
20260505074102 55 49 0.0 2.6 0.00 0.00 0.00 68 1015.2
20260505071925 53 105 0.0 3.5 0.00 0.00 0.00 71 1015.2
20260505070925 53 25 0.0 2.6 0.00 0.00 0.00 73 1015.3
20260505065927 51 278 0.0 2.6 0.00 0.00 0.00 75 1015.3
20260505064943 50 54 0.0 0.9 0.00 0.00 0.00 79 1015.4
20260505063937 49 257 0.0 0.9 0.00 0.00 0.00 78 1015.4
20260505061823 50 225 0.0 2.6 0.00 0.00 0.00 79 1015.4
20260505060823 49 249 0.0 1.7 0.00 0.00 0.00 83 1015.4
20260505055800 47 252 0.0 0.9 0.00 0.00 0.00 86 1015.4
20260505054811 46 283 0.0 0.0 0.00 0.00 0.00 88 1015.4
20260505053745 44 268 0.0 0.9 0.00 0.00 0.00 89 1015.3
20260505052737 43 262 0.0 1.7 0.00 0.00 0.00 90 1015.3